This is the latest recevied weather packets stored in our database for station/object DW2488. If no packets are shown the sender has not sent any weather packets the latest 10 day(s).
| Time | Temp. | Humidity | Pressure | Rain* | Wind** | Luminosity | Snow |
|---|---|---|---|---|---|---|---|
| 1777963545 | 22.22° C | 42% | 1018.2 hPa | 0 mm | - | 16 W/m² | - |
| 1777962643 | 22.78° C | 42% | 1018 hPa | 0 mm | - | 44 W/m² | - |
| 1777961739 | 22.78° C | 43% | 1018 hPa | 0 mm | - | 88 W/m² | - |
| 1777960836 | 23.33° C | 40% | 1017.9 hPa | 0 mm | - | 139 W/m² | - |
| 1777959931 | 23.33° C | 41% | 1017.8 hPa | 0 mm | - | 202 W/m² | - |
| 1777959030 | 23.33° C | 40% | 1017.8 hPa | 0 mm | - | 253 W/m² | - |
| 1777958129 | 23.33° C | 40% | 1017.7 hPa | 0 mm | - | 297 W/m² | - |
| 1777957230 | 23.33° C | 40% | 1017.5 hPa | 0 mm | - | 345 W/m² | - |
| 1777956327 | 22.78° C | 42% | 1017.5 hPa | 0 mm | - | 383 W/m² | - |
| 1777955427 | 22.22° C | 42% | 1017.3 hPa | 0 mm | - | 42 W/m² | - |
| 1777954524 | 22.22° C | 43% | 1017.1 hPa | 0 mm | - | 40 W/m² | - |
| 1777953625 | 22.22° C | 42% | 1017.1 hPa | 0 mm | - | 499 W/m² | - |
| 1777952719 | 22.78° C | 42% | 1017 hPa | 0 mm | - | 531 W/m² | - |
| 1777951819 | 22.78° C | 41% | 1017 hPa | 0 mm | - | 559 W/m² | - |
| 1777950916 | 22.78° C | 44% | 1017.2 hPa | 0 mm | - | 587 W/m² | - |
| 1777950015 | 22.22° C | 45% | 1017.3 hPa | 0 mm | - | 617 W/m² | - |
| 1777949120 | 21.67° C | 49% | 1017.2 hPa | 0 mm | - | 642 W/m² | - |
| 1777948214 | 21.67° C | 49% | 1017.4 hPa | 0 mm | - | 664 W/m² | - |
| 1777947306 | 21.11° C | 51% | 1017.7 hPa | 0 mm | - | 680 W/m² | - |
| 1777946400 | 20.56° C | 54% | 1017.9 hPa | 0 mm | - | 673 W/m² | - |
| 1777945497 | 20.56° C | 54% | 1017.9 hPa | 0 mm | - | 664 W/m² | - |
| 1777944601 | 20° C | 56% | 1018.1 hPa | 0 mm | - | 654 W/m² | - |
| 1777943696 | 19.44° C | 61% | 1018.3 hPa | 0 mm | - | 642 W/m² | - |
| 1777942793 | 18.89° C | 58% | 1018.6 hPa | 0 mm | - | 624 W/m² | - |
| 1777941895 | 18.89° C | 59% | 1018.9 hPa | 0 mm | - | 606 W/m² | - |
* Rain latest hour (hover to see other rain measurements)
** Current wind speed in m/s (hover to see current wind gust speed)